Regional Weather Roundup
Issued by NWS Albany, NY

Home | Current Version | Previous Version | Text Only | Print | Product List | Glossary On
Versions: 1 2 3 4 5 6 7 8 9 10 11 12 13 14 15 16 17 18 19 20 21 22 23 24 25 26 27 28
000
ASUS41 KALY 182310
RWRALY

NEW YORK STATE HOURLY WEATHER ROUNDUP
NATIONAL WEATHER SERVICE ALBANY NY
700 PM EDT WED OCT 18 2017

NOTE: "FAIR" INDICATES FEW OR NO CLOUDS BELOW 12,000 FEET WITH NO
SIGNIFICANT WEATHER AND/OR NO OBSTRUCTIONS TO VISIBILITY.

NYZ032-033-038>043-046>054-057>066-NYZ062>081-082-084-190000-
EAST


CITY           SKY/WX    TMP DP  RH WIND       PRES   REMARKS
ALBANY         PTCLDY    60  48  64 CALM      30.23R
GLENS FALLS    CLEAR     57  47  69 SW3       30.22R
POUGHKEEPSIE   CLEAR     57  49  74 CALM      30.24R
NEWBURGH       CLEAR     61  52  72 CALM      30.26R
MONTGOMERY     CLEAR     56  51  84 CALM      30.24R
WHITE PLAINS   CLEAR     60  48  64 S5        30.26R
ISLIP          CLEAR     59  53  80 SW5       30.28R
NEW YORK CITY  CLEAR     66  51  58 S9        30.26R
CENTRAL PARK   CLEAR     65  49  56 VRB3      30.29R
$$

NYZ005>009-017-018-044>046-055-056-190000-
CENTRAL


CITY           SKY/WX    TMP DP  RH WIND       PRES   REMARKS
FULTON           N/A    N/A N/A N/A MISG      30.19R
SYRACUSE       CLEAR     58  49  72 E3        30.19S
ROME           CLEAR     56  50  80 CALM      30.22R
ELMIRA         CLEAR     56  47  71 CALM      30.22R
BINGHAMTON     CLEAR     61  42  49 S3        30.25R
MONTICELLO     CLEAR     62  43  49 SW3       30.28R
$$

NYZ026>034-041>043-087-190000-
NORTH


CITY           SKY/WX    TMP DP  RH WIND       PRES   REMARKS
WATERTOWN      CLEAR     50  48  93 SE3       30.17S
FORT DRUM      NOT AVBL
OGDENSBURG     FAIR      60  49  68 S7        30.15S
MASSENA        CLEAR     61  49  64 SW9       30.16R
SARANAC LAKE   CLEAR     48  45  89 CALM      30.19R
PLATTSBURGH    CLEAR     53  48  83 CALM      30.17R
$$

NYZ001>004-010>016-019>021-085-190000-
WEST


CITY           SKY/WX    TMP DP  RH WIND       PRES   REMARKS
NIAGARA FALLS  CLEAR     61  43  51 S7        30.16S
BUFFALO        PTCLDY    57  50  77 S7        30.18S
DUNKIRK        CLEAR     52  49  89 S3        30.19S
JAMESTOWN      CLEAR     59  41  51 S7        30.23R
WELLSVILLE     CLEAR     64  36  35 S7        30.26R
ROCHESTER      CLEAR     61  47  59 CALM      30.18R
PENN YAN       CLEAR     56  45  66 S6        30.20R
$$

             KEY
       WCI = WIND CHILL INDEX
       VSB = VISIBILITY
       HX  = HEAT INDEX
$$




USA.gov is the U.S. government's official web portal to all federal, state and local government web resources and services.